Torna al catalogo

STARLINK-5966

AttivoComunicazioniVLEO
NORAD 56919·PAYLOAD·🇺🇸 United States

Lanciato Jun 12, 2023 da Cape Canaveral Space Force Station

Loading…

Prossimi Passaggi (prossime 24 ore)

TLE

AggiornatoSource: CelesTrak SupGP

Epoca: Sep 14, 2026, 20:59 UTC

1 56919C 23083AV  26257.87479167  .00024211  00000+0  87706-3 0  2574
2 56919  42.9998  81.9235 0001985 253.1064 175.1466 15.27560036    11

Traccia STARLINK-5966 in tempo reale con AllMySat

Download on the App Store